Location: Newark
(23.1300°N, 73.6109°E)
Time: 02:10:09
(UTC+00:00)

Envisat - Pass Details

Date: 01 August 2021
Orbit: 764 x 766 km, 98.2° (Epoch: 28 September)

Event Time Altitude Azimuth Distance (km) Brightness Sun altitude
Rises 23:12:25 0° 35° (NE) 3,228 7.4 -18.4°
Reaches altitude 10° 23:15:26 10° 54° (NE) 2,299 6.7 -17.8°
Maximum altitude 23:18:51 18° 97° (E) 1,797 5.6 -17.1°
Drops below altitude 10° 23:22:15 10° 139° (SE) 2,293 5.6 -16.5°
Sets 23:25:14 0° 158° (SSE) 3,215 6.2 -15.9°
